Location: Unspecified
(0.0000°N, 0.0000°E)
Time: 14:40:19
(UTC+00:00)

Vanguard 3 - Pass Details

Date: 05 December 2025
Orbit: 507 x 3207 km, 33.3° (Epoch: 22 January)

Event Time Altitude Azimuth Distance (km) Brightness Sun altitude
Rises 05:11:28 0° 232° (SW) 6,559 11.5 -9.0°
Reaches altitude 10° 05:18:33 10° 214° (SW) 5,902 11.4 -7.4°
Maximum altitude 05:29:25 17° 178° (S) 5,514 11.7 -4.9°
Drops below altitude 10° 05:40:22 10° 143° (SE) 5,960 12.7 -2.4°
Sets 05:47:34 0° 125° (SE) 6,647 14.0 -0.7°
